This is the latest recevied weather packets stored in our database for station/object WV8BRW. If no packets are shown the sender has not sent any weather packets the latest 10 day(s).
| Time | Temp. | Humidity | Pressure | Rain* | Wind** | Luminosity | Snow |
|---|---|---|---|---|---|---|---|
| 1777870525 | 8.89° C | 96% | 1013.5 hPa | 0 mm | - | 0 W/m² | - |
| 1777870221 | 8.89° C | 95% | 1013.8 hPa | 0 mm | - | 0 W/m² | - |
| 1777869918 | 8.89° C | 95% | 1013.6 hPa | 0 mm | - | 0 W/m² | - |
| 1777869615 | 9.44° C | 95% | 1013.7 hPa | 0 mm | - | 0 W/m² | - |
| 1777869312 | 9.44° C | 94% | 1013.7 hPa | 0 mm | - | 0 W/m² | - |
| 1777869010 | 8.89° C | 93% | 1013.6 hPa | 0 mm | - | 0 W/m² | - |
| 1777868706 | 8.89° C | 93% | 1013.7 hPa | 0 mm | - | 0 W/m² | - |
| 1777868403 | 9.44° C | 93% | 1013.6 hPa | 0 mm | - | 0 W/m² | - |
| 1777868099 | 9.44° C | 92% | 1013.7 hPa | 0 mm | - | 0 W/m² | - |
| 1777867795 | 9.44° C | 91% | 1013.6 hPa | 0 mm | - | 0 W/m² | - |
| 1777867493 | 9.44° C | 91% | 1013.9 hPa | 0 mm | - | 0 W/m² | - |
| 1777867189 | 9.44° C | 89% | 1013.8 hPa | 0 mm | - | 0 W/m² | - |
| 1777866887 | 9.44° C | 89% | 1013.9 hPa | 0 mm | - | 0 W/m² | - |
| 1777866583 | 9.44° C | 86% | 1014.2 hPa | 0 mm | - | 0 W/m² | - |
| 1777866280 | 10° C | 85% | 1013.9 hPa | 0 mm | - | 0 W/m² | - |
| 1777865977 | 10° C | 82% | 1014 hPa | 0 mm | - | 0 W/m² | - |
| 1777865675 | 10° C | 80% | 1013.7 hPa | 0 mm | - | 0 W/m² | - |
| 1777865372 | 10° C | 79% | 1013.8 hPa | 0 mm | - | 0 W/m² | - |
| 1777865069 | 10° C | 78% | 1013.8 hPa | 0 mm | - | 0 W/m² | - |
| 1777864765 | 10° C | 76% | 1013.8 hPa | 0 mm | - | 0 W/m² | - |
| 1777864462 | 10° C | 77% | 1014.1 hPa | 0 mm | - | 0 W/m² | - |
| 1777864159 | 10° C | 76% | 1013.9 hPa | 0 mm | - | 0 W/m² | - |
| 1777863856 | 10° C | 74% | 1013.8 hPa | 0 mm | - | 0 W/m² | - |
| 1777863552 | 10° C | 77% | 1013.9 hPa | 0 mm | - | 0 W/m² | - |
| 1777863249 | 10° C | 74% | 1014 hPa | 0 mm | - | 0 W/m² | - |
* Rain latest hour (hover to see other rain measurements)
** Current wind speed in m/s (hover to see current wind gust speed)